{"data":{"norad_id":59686,"epoch":"2026-05-24T21:32:31.667136Z","epoch_age_seconds":79985,"freshness":"FRESH","line1":"1 59686U 24086E   26144.89758874 -.00000970  00000+0 -25754-4 0  9991","line2":"2 59686  43.0039 331.4092 0001091 262.4532  97.6196 15.27573971115970","mean_motion":15.27573971,"eccentricity":0.0001091,"inclination_deg":43.0039,"raan_deg":331.4092,"arg_perigee_deg":262.4532,"mean_anomaly_deg":97.6196,"bstar":-2.5754e-5,"rev_number":11597,"period_min":94.267120763869,"perigee_km":482.31859172128,"apogee_km":483.81570646662,"semimajor_km":6861.204149094,"source":"CELESTRAK","updated_at":"2026-05-25T13:38:19.023723Z"}}